Location: Springville
(37.3745°N, 89.2676°W)
Time: 13:59:18
(UTC+00:00)

CZ-4B R/B - Pass Details

Date: 29 October 2020
Orbit: 388 x 461 km, 97.6° (Epoch: 03 December)

Event Time Altitude Azimuth Distance (km) Brightness Sun altitude
Rises 23:23:31 0° 14° (NNE) 2,363 4.8 -5.0°
Reaches altitude 10° 23:25:33 10° 17° (NNE) 1,483 3.7 -5.4°
Maximum altitude 23:28:42 68° 101° (E) 438 1.1 -6.0°
Drops below altitude 10° 23:31:45 10° 185° (S) 1,437 4.2 -6.6°
Sets 23:33:41 0° 188° (S) 2,281 5.3 -7.0°
